Lexington Weather

Lexington, Massachusetts, USA

59°F
10/23/2020 6:01pm 
  • Lexington Conditions: Overcast
  • Temperature: 58.8°F / 14.9°CColder 2.4°F than last hour.
  • Dew Point: 53.1°FDecreased 1.8°Fsince last hour.
  • Relative Humidity: 81%Increased 1.0% since last hour.
  • Wind: Wind from WSW WSW Calm, 10-min avg: 1 mph, gust: 6 mph
  • Barometer: 30.08 in Steady
  • Visibility: 10 miles
  • Rain Today: 0.00 in
  •   

Regional Weather Roundup
for Boston / Norton, MA

        
000
ASUS41 KBOX 171705
RWRBOX

REGIONAL WEATHER ROUNDUP
NATIONAL WEATHER SERVICE BOSTON/NORTON MA
100 PM EDT SAT OCT 17 2020

NOTE:  "FAIR" INDICATES FEW OR NO CLOUDS BELOW 12,000 FEET WITH NO 
SIGNIFICANT WEATHER AND/OR OBSTRUCTIONS TO VISIBILITY.

MAZALL-171800-
EASTERN MASSACHUSETTS
  
CITY           SKY/WX    TMP DP  RH WIND       PRES   REMARKS
BOSTON         MOSUNNY   54  37  52 NW16G28   30.18S                  
BEVERLY        SUNNY     54  38  54 NW17G30   30.16S                  
LAWRENCE       SUNNY     53  39  59 NW13G25   30.19S                  
BEDFORD        MOSUNNY   55  36  48 NW21G32   30.18S                  
BLUE HILL        N/A     52  39  61 W16G28    30.17R                  
NORWOOD        SUNNY     57  37  47 NW17G25   30.20R                  
MARSHFIELD     SUNNY     55  39  54 W9G18     30.18R                  
PLYMOUTH       SUNNY     54  37  52 NW16G28   30.19R                  
TAUNTON        SUNNY     57  39  51 W10G17    30.20S                  
NEW BEDFORD    SUNNY     56  39  53 NW13G22   30.20R                  
$$

MAZALL-171800-
CAPE COD AND THE ISLANDS
  
CITY           SKY/WX    TMP DP  RH WIND       PRES   REMARKS
FALMOUTH       SUNNY     54  39  58 NW17G28   30.19R                  
HYANNIS        SUNNY     54  40  59 NW17G24   30.16R                  
CHATHAM        MOSUNNY   52  41  66 NW13G29   30.18R                  
PROVINCETOWN   MOSUNNY   52  42  69 NW24G33   30.18R                  
NANTUCKET      SUNNY     54  44  69 NW22G33   30.18S                  
MARTHAS VNYRD  SUNNY     55  39  54 NW20G28   30.20R                  
$$
 
MAZALL-171800-
CENTRAL AND WESTERN MASSACHUSETTS
  
CITY           SKY/WX    TMP DP  RH WIND       PRES   REMARKS
WORCESTER      SUNNY     52  34  50 W17G26    30.22R                  
FITCHBURG      MOSUNNY   54  36  50 NW22G30   30.22R                  
ORANGE         SUNNY     53  35  50 NW12      30.25R                  
SPRINGFIELD    MOSUNNY   57  31  38 NW14      30.24S                  
WESTFIELD      MOSUNNY   57  35  43 W8        30.25F                  
NORTH ADAMS    SUNNY     53  31  42 VRB6      30.26S                  
PITTSFIELD     SUNNY     52  30  43 NW13      30.25S                  
$$
 
RIZALL-171800-
RHODE ISLAND
  
CITY           SKY/WX    TMP DP  RH WIND       PRES   REMARKS
PROVIDENCE     MOSUNNY   57  38  48 NW14      30.23R                  
NEWPORT        SUNNY     54  39  57 NW17G24   30.22R                  
BLOCK ISLAND   SUNNY     55  40  56 NW12G18   30.23F                  
SMITHFIELD     SUNNY     54  37  52 NW15G25     N/A                   
WESTERLY       SUNNY     56  35  45 NW12G22   30.23F                  
$$
 
CTZALL-171800-
CONNECTICUT
  
CITY           SKY/WX    TMP DP  RH WIND       PRES   REMARKS
BRADLEY INTL   MOSUNNY   57  33  40 NW15      30.26S                  
HARTFORD       SUNNY     58  37  45 NW8       30.25F                  
BRIDGEPORT     SUNNY     58  35  42 NW12      30.27F                  
DANBURY        SUNNY     55  32  41 NW12G24   30.29F                  
GROTON         SUNNY     58  39  49 N14G24    30.22F                  
NEW HAVEN      SUNNY     59  35  40 NW8G17    30.26F                  
CHESTER        NOT AVBL                                               
MERIDEN        SUNNY     57  34  41 N14G20    30.25F                  
WILLIMANTIC    SUNNY     55  37  50 VRB7G18   30.25F                  
OXFORD         SUNNY     53  29  39 NW15G26   30.25F                  
$$

MEZ002-015-021-024-NHZ003-005-008-011-012-014-VTZ005-008-171800-
NORTHERN NEW ENGLAND
  
CITY           SKY/WX    TMP DP  RH WIND       PRES   REMARKS
PORTLAND ME    LGT RAIN  46  43  89 W17G24    30.10R                  
BANGOR ME      LGT RAIN  43  40  89 W13       29.91S FOG              
CONCORD NH     MOSUNNY   52  35  52 NW21G30   30.17S                  
MANCHESTER NH  MOSUNNY   55  33  43 NW17G24   30.17S                  
NASHUA NH      MOSUNNY   55  34  45 NW23G31   30.19S                  
PORTSMOUTH NH  MOSUNNY   51  37  59 NW16G36   30.13R                  
JAFFREY NH     SUNNY     50  33  52 NW8G18    30.21R                  
KEENE NH       MOSUNNY   52  33  48 NW13G18   30.23S                  
BURLINGTON VT  MOSUNNY   55  33  43 NW9       30.23F                  
MT. WASHINGTON BLWGSNOW  21  21 100 NW63G69     N/A  VSB 1/16WCI  -3  
$$

NYZ052-076-171800-
EASTERN NEW YORK
  
CITY           SKY/WX    TMP DP  RH WIND       PRES   REMARKS
ALBANY         MOSUNNY   52  32  46 W10G18    30.28F                  
NEW YORK CITY  SUNNY     58  30  34 NW13      30.30S                  
$$
 
ANZALL-171800-
MARINE OBSERVATIONS
  
STATION/POSITION TIME  TEMP    WIND        PRES    VSBY  WAVE
                       AIR SEA DIR/SP/G                  HT/PER
                 (UTC) (F)     (DEG/KT/KT) (MB)    (MI)  (FT/S)
BOSTON BUOY      1650   52 57  310/ 25/ 31 1019.8R         5/ 6
BUZZARDS BAY     1600          320/ 21/ 25 1024.0R
NANTUCKET SOUND  1650      62  310/ 21/ 25   N/A           3/ 4
MASS BAY-STELLWA 1604   48 58  310/ 23/ 27 1019.8R  1 7/8  5/ 5
ISLE OF SHOALS   1600   45     290/ 24/ 28 1019.4R
S OF BLOCK IS    1626      63                N/A           5/ 5
$$

......................KEY.........................
  SKY/WX - SKY CONDITION/PRESENT WEATHER
  TMP    - TEMPERATURE IN FAHRENHEIT
  DWPT   - DEWPOINT IN FAHRENHEIT
  RH     - RELATIVE HUMIDITY IN PERCENT
  WIND   - DIRECTION AND SPEED IN MPH
  PRES   - MEAN SEA LEVEL PRESSURE IN INCHES OF HG
  WCI    - WIND CHILL INDEX
  VSB    - VISIBILITY IN MILES
  HX     - HEAT INDEX
  TC     - TEMPERATURE IN CELSIUS
  VRB    - VARIABLE WIND DIRECTION
  N/A    - NOT AVAILABLE
  
      

Other recent Regional Weather Roundups

Fri Oct 23, 5:05pm

Fri Oct 23, 4:04pm

Fri Oct 23, 3:04pm

Fri Oct 23, 2:05pm

Fri Oct 23, 1:04pm

Fri Oct 23, 12:04pm

Fri Oct 23, 11:04am

Fri Oct 23, 10:04am

Fri Oct 23, 9:04am

Fri Oct 23, 8:04am

Fri Oct 23, 7:04am

Fri Oct 23, 6:04am

Fri Oct 23, 5:04am

Fri Oct 23, 4:04am

Fri Oct 23, 3:04am

Fri Oct 23, 2:04am

Fri Oct 23, 1:04am

Fri Oct 23, 12:04am

Thu Oct 22, 11:04pm

Thu Oct 22, 10:04pm

Thu Oct 22, 9:05pm

Thu Oct 22, 8:04pm

Thu Oct 22, 7:05pm

Thu Oct 22, 6:04pm

Thu Oct 22, 5:04pm

Thu Oct 22, 4:05pm

Thu Oct 22, 3:04pm

Thu Oct 22, 2:05pm

Thu Oct 22, 1:04pm

Thu Oct 22, 12:04pm

Thu Oct 22, 11:04am

Thu Oct 22, 10:05am

Thu Oct 22, 9:04am

Thu Oct 22, 8:05am

Thu Oct 22, 7:04am

Thu Oct 22, 6:04am

Thu Oct 22, 5:04am

Thu Oct 22, 4:04am

Thu Oct 22, 3:04am

Thu Oct 22, 2:04am

Thu Oct 22, 1:04am

Thu Oct 22, 12:04am

Wed Oct 21, 11:05pm

Wed Oct 21, 10:04pm

Wed Oct 21, 9:04pm

Wed Oct 21, 8:04pm

Wed Oct 21, 7:04pm

Wed Oct 21, 6:04pm

Wed Oct 21, 5:05pm

Wed Oct 21, 4:04pm

Wed Oct 21, 3:04pm

Wed Oct 21, 2:05pm

Wed Oct 21, 1:04pm

Wed Oct 21, 12:04pm

Wed Oct 21, 11:04am

Wed Oct 21, 10:04am

Wed Oct 21, 9:04am

Wed Oct 21, 8:04am

Wed Oct 21, 7:04am

Wed Oct 21, 6:04am

Wed Oct 21, 5:04am

Wed Oct 21, 4:04am

Wed Oct 21, 3:04am

Wed Oct 21, 2:04am

Wed Oct 21, 1:04am

Wed Oct 21, 12:04am

Tue Oct 20, 11:05pm

Tue Oct 20, 10:04pm

Tue Oct 20, 9:04pm

Tue Oct 20, 8:05pm

Tue Oct 20, 7:04pm

Tue Oct 20, 6:04pm

Tue Oct 20, 5:05pm

Tue Oct 20, 4:04pm

Tue Oct 20, 3:05pm

Tue Oct 20, 2:07pm

Tue Oct 20, 1:04pm

Tue Oct 20, 12:04pm

Tue Oct 20, 11:04am

Tue Oct 20, 10:05am

Tue Oct 20, 9:04am

Tue Oct 20, 8:04am

Tue Oct 20, 7:04am

Tue Oct 20, 6:04am

Tue Oct 20, 5:04am

Tue Oct 20, 4:04am

Tue Oct 20, 3:04am

Tue Oct 20, 2:04am

Tue Oct 20, 1:04am

Tue Oct 20, 12:04am

Mon Oct 19, 11:04pm

Mon Oct 19, 10:04pm

Mon Oct 19, 9:04pm

Mon Oct 19, 8:04pm

Mon Oct 19, 7:04pm

Mon Oct 19, 6:04pm

Mon Oct 19, 5:04pm

Mon Oct 19, 4:04pm

Mon Oct 19, 3:04pm

Mon Oct 19, 2:04pm

Mon Oct 19, 1:05pm

Mon Oct 19, 12:04pm

Mon Oct 19, 11:04am

Mon Oct 19, 10:04am

Mon Oct 19, 9:04am

Mon Oct 19, 8:04am

Mon Oct 19, 7:04am

Mon Oct 19, 6:04am

Mon Oct 19, 5:04am

Mon Oct 19, 4:04am

Mon Oct 19, 3:04am

Mon Oct 19, 2:04am

Mon Oct 19, 1:04am

Mon Oct 19, 12:05am

Sun Oct 18, 11:04pm

Sun Oct 18, 10:04pm

Sun Oct 18, 9:04pm

Sun Oct 18, 8:04pm

Sun Oct 18, 7:05pm

Sun Oct 18, 6:04pm

Sun Oct 18, 5:05pm

Sun Oct 18, 4:05pm

Sun Oct 18, 3:04pm

Sun Oct 18, 2:05pm

Sun Oct 18, 1:04pm

Sun Oct 18, 12:04pm

Sun Oct 18, 11:04am

Sun Oct 18, 10:04am

Sun Oct 18, 9:04am

Sun Oct 18, 8:04am

Sun Oct 18, 7:04am

Sun Oct 18, 6:04am

Sun Oct 18, 5:04am

Sun Oct 18, 4:04am

Sun Oct 18, 3:04am

Sun Oct 18, 2:04am

Sun Oct 18, 1:04am

Sun Oct 18, 12:04am

Sat Oct 17, 11:05pm

Sat Oct 17, 10:04pm

Sat Oct 17, 9:04pm

Sat Oct 17, 8:04pm

Sat Oct 17, 7:04pm

Sat Oct 17, 6:04pm

Sat Oct 17, 5:05pm

Sat Oct 17, 4:04pm

Sat Oct 17, 3:04pm

Sat Oct 17, 2:05pm

Sat Oct 17, 12:04pm

Sat Oct 17, 11:05am

Sat Oct 17, 10:04am

Sat Oct 17, 9:04am

Sat Oct 17, 8:04am

Sat Oct 17, 7:04am

Sat Oct 17, 6:04am

Sat Oct 17, 5:04am

Sat Oct 17, 4:04am

Sat Oct 17, 3:04am

Sat Oct 17, 2:04am

Sat Oct 17, 1:05am

Sat Oct 17, 12:04am

Fri Oct 16, 11:05pm

Fri Oct 16, 10:04pm

Fri Oct 16, 9:05pm

Fri Oct 16, 8:04pm

Fri Oct 16, 7:05pm

Fri Oct 16, 6:04pm

Meta data:

ID: cf2b2e6e-1bf4-4d73-b0dd-98a91b72fe32
Link: https://api.weather.gov/products/cf2b2e6e-1bf4-4d73-b0dd-98a91b72fe32